Location: Guadanolo
(41.9167°N, 12.9333°E)
Time: 13:32:54
(UTC+00:00)

ASTEX 1 - Pass Details

Date: 16 September 2019
Orbit: 720 x 744 km, 92.7° (Epoch: 19 October)

Event Time Altitude Azimuth Distance (km) Brightness Sun altitude
Rises 18:52:35 0° 3° (N) 3,144 6.9 -18.2°
Reaches altitude 10° 18:54:53 10° 2° (N) 2,217 6.1 -18.6°
Maximum altitude 18:59:45 73° 278° (W) 755 3.6 -19.4°
Drops below altitude 10° 19:04:36 10° 194° (SSW) 2,200 5.8 -20.3°
Sets 19:06:52 0° 193° (SSW) 3,117 6.6 -20.7°
